Location: Innsbruck
(47.2657°N, 11.3914°E)
Time: 12:07:54
(UTC+01:00)

XW-2F - Pass Details

Date: 11 December 2021
Orbit: 495 x 515 km, 97.5° (Epoch: 16 January)

Event Time Altitude Azimuth Distance (km) Brightness Sun altitude
Rises 05:59:47 0° 21° (NNE) 2,648 ? -18.0°
Reaches altitude 10° 06:02:02 10° 30° (NNE) 1,753 ? -17.6°
Maximum altitude 06:05:30 34° 97° (E) 865 ? -17.0°
Drops below altitude 10° 06:08:56 10° 163° (SSE) 1,730 ? -16.5°
Sets 06:11:08 0° 173° (S) 2,607 ? -16.1°
